Regional Weather Roundup
Issued by NWS

Home | Current Version | Previous Version | Text Only | Print | Product List | Glossary On
Versions: 1 2 3 4 5 6 7 8 9 10 11 12 13 14 15 16 17 18 19 20 21 22 23 24 25 26 27 28 29 30 31 32 33 34 35 36 37 38 39 40 41 42 43 44 45 46 47 48 49 50
000
ASUS43 KTOP 041608
RWRKS

WEATHER ROUNDUP FOR KANSAS
NATIONAL WEATHER SERVICE GOODLAND KS
1100 AM CDT MON MAY 04 2015

NOTE:  "FAIR" INDICATES FEW OR NO CLOUDS BELOW 12,000 FEET WITH NO
SIGNIFICANT WEATHER AND/OR OBSTRUCTIONS TO VISIBILITY.

KSZ001>006-013>018-027>032-041>047-041700-
NORTHWEST KANSAS

CITY           SKY/WX    TMP DP  RH WIND       PRES   REMARKS
GOODLAND       CLOUDY    57  45  64 NE13      30.09S
HAYS           CLOUDY    63  48  59 N7        30.03F
HILL CITY      CLOUDY    60  50  69 E9        30.08R
RUSSELL        LGT RAIN  67  52  58 N10       29.97F
$$

KSZ061>065-074>080-084>089-041700-
SOUTHWEST KANSAS

CITY           SKY/WX    TMP DP  RH WIND       PRES   REMARKS
DODGE CITY     MOSUNNY   70  55  59 SE10      30.04R
ELKHART          N/A     66  52  61 N6          N/A
GARDEN CITY    MOSUNNY   66  56  70 SE12      30.03R
GREAT BEND     PTSUNNY   72  57  60 S9        30.01R
LIBERAL        MOSUNNY   72  55  56 S13       30.06R
PRATT          PTSUNNY   72  57  60 S7        30.03S
$$

KSZ066>073-081>083-090>101-041700-
SOUTHEAST KANSAS

CITY           SKY/WX    TMP DP  RH WIND       PRES   REMARKS
CHANUTE        SUNNY     76  61  59 S15       30.07R
COFFEYVILLE    SUNNY     75  62  64 S17       30.08R
HUTCHINSON     SUNNY     74  59  59 S12       30.02S
MEDICINE LODGE   N/A     71  59  65 VRB6      30.01S
NEWTON         MOSUNNY   73  57  56 S13       30.05S
PARSONS        SUNNY     76  62  62 S14G20    30.09R
WICHITA INTL   PTSUNNY   72  58  61 S12       30.03S
WICHITA JABRA  MOSUNNY   74  58  57 S14       30.03S
WINFIELD       MOSUNNY   75  61  61 S13       30.05R
$$

KSZ007>012-019>026-033>040-048>060-102>105-041700-
NORTHEAST KANSAS

CITY           SKY/WX    TMP DP  RH WIND       PRES   REMARKS
CONCORDIA      CLOUDY    67  57  70 SE9       30.01S
EMPORIA        MOSUNNY   76  60  57 SW12      30.04R
LAWRENCE       MOSUNNY   73  60  63 SW6       30.04R
MANHATTAN      PTSUNNY   75  60  59 VRB3      30.01R
MARYSVILLE     CLOUDY    68  57  68 SE14G22   30.02F
OLATHE IND     PTSUNNY   72  61  68 S8        30.06R
OLATHE EXE     PTSUNNY   72  62  71 S7        30.05R
SALINA         SUNNY     77  58  51 SW12      30.01R
TOPEKA BILLARD PTSUNNY   73  60  63 VRB5      30.04R
TOPEKA FORBES  PTSUNNY   75  61  61 SW5       30.04R
$$


USA.gov is the U.S. government's official web portal to all federal, state and local government web resources and services.